Weather History for Fayetteville, AR

Change the Weather History Date:

Saturday, December 15, 2012

  Actual Average Record
Temperature  
Mean Temperature 54 °F 37 °F  
Max Temperature 61 °F 48 °F 71 °F (2006)
Min Temperature 47 °F 27 °F -2 °F (1958)
Degree Days  
Heating Degree Days 11 28  
Month to date heating degree days 258 391  
Since 1 July heating degree days 1071 1220  
Growing Degree Days 4 (Base 50)    
Moisture  
Dew Point 42 °F    
Average Humidity 70    
Maximum Humidity 100    
Minimum Humidity 39    
Precipitation  
Precipitation 0.04 in 0.10 in 1.21 in (2000)
Month to date precipitation 1.28 1.68  
Year to date precipitation 29.19 46.95  
Sea Level Pressure  
Sea Level Pressure 29.76 in    
Wind  
Wind Speed 13 mph (SSW)    
Max Wind Speed 26 mph    
Max Gust Speed 33 mph    
Visibility 10 miles    
Events Rain    
T = Trace of Precipitation, MM = Missing Value Source: NWS Daily Summary

Daily Weather History Graph

Daily Weather History Graph

Search for Another Location

Airport:

Trip Planner

Search our weather history database for the weather conditions in past years. The results will help you decide how hot, cold, wet, or windy it might be!

Date:

Astronomy

Dec. 15, 2012 Rise Set
Actual Time 7:20 AM CST 5:03 PM CST
Civil Twilight 6:51 AM CST 5:32 PM CST
Nautical Twilight 6:19 AM CST 6:04 PM CST
Astronomical Twilight 5:48 AM CST 6:35 PM CST
Moon 9:16 AM CST (12/15) 8:04 PM CST (12/15)
Length of Visible Light 10h 40m
Length of Day
9h 43m
Waxing Crescent, 8% of the Moon is Illuminated
Dec 15
Waxing Crescent
Dec 19
First Quarter
Dec 28
Full
Jan 4
Last Quarter
Jan 11
New

Hourly Weather History & Observations

Time (CST) Temp. Dew Point Humidity Pressure Visibility Wind Dir Wind Speed Gust Speed Precip Events Conditions
12:53 AM 48.9 °F 45.0 °F 86% 29.78 in 6.0 mi South 19.6 mph 32.2 mph 0.03 in Rain Rain
1:53 AM 48.0 °F 48.0 °F 100% 29.78 in 10.0 mi South 11.5 mph - 0.00 in   Overcast
2:05 AM 48.2 °F 48.2 °F 100% 29.78 in 10.0 mi South 13.8 mph - N/A   Overcast
2:53 AM 48.9 °F 48.9 °F 100% 29.77 in 10.0 mi South 15.0 mph 25.3 mph N/A   Overcast
3:03 AM 48.2 °F 48.2 °F 100% 29.78 in 10.0 mi South 16.1 mph - N/A   Overcast
3:25 AM 50.0 °F 50.0 °F 100% 29.77 in 10.0 mi South 13.8 mph - N/A   Overcast
3:53 AM 51.1 °F 51.1 °F 100% 29.76 in 10.0 mi South 12.7 mph - N/A   Overcast
4:53 AM 51.1 °F 48.9 °F 92% 29.74 in 10.0 mi South 18.4 mph 26.5 mph N/A   Scattered Clouds
5:53 AM 51.1 °F 48.9 °F 92% 29.75 in 10.0 mi South 18.4 mph 27.6 mph N/A   Clear
6:53 AM 51.1 °F 48.0 °F 89% 29.76 in 10.0 mi SSW 13.8 mph 21.9 mph N/A   Clear
7:53 AM 52.0 °F 46.0 °F 80% 29.78 in 10.0 mi SSW 17.3 mph 24.2 mph N/A   Clear
8:53 AM 54.0 °F 45.0 °F 72% 29.78 in 10.0 mi SSW 17.3 mph - N/A   Clear
9:53 AM 55.9 °F 42.1 °F 60% 29.78 in 10.0 mi SW 20.7 mph 33.4 mph 0.01 in   Clear
10:53 AM 57.0 °F 41.0 °F 55% 29.78 in 10.0 mi SSW 19.6 mph 26.5 mph N/A   Clear
11:53 AM 59.0 °F 39.9 °F 49% 29.75 in 10.0 mi SSW 13.8 mph 19.6 mph N/A   Clear
12:53 PM 61.0 °F 39.0 °F 44% 29.74 in 10.0 mi SSW 18.4 mph - N/A   Clear
1:53 PM 61.0 °F 36.0 °F 39% 29.72 in 10.0 mi SSW 18.4 mph 25.3 mph N/A   Clear
2:53 PM 60.1 °F 36.0 °F 41% 29.71 in 10.0 mi SSW 12.7 mph 23.0 mph N/A   Clear
3:53 PM 57.9 °F 37.0 °F 46% 29.72 in 10.0 mi SSW 9.2 mph 18.4 mph N/A   Clear
4:53 PM 55.9 °F 37.0 °F 49% 29.73 in 10.0 mi SSW 6.9 mph - N/A   Clear
5:53 PM 53.1 °F 36.0 °F 52% 29.75 in 10.0 mi SSW 4.6 mph - N/A   Clear
6:53 PM 55.0 °F 35.1 °F 47% 29.77 in 10.0 mi SW 6.9 mph - N/A   Clear
7:53 PM 52.0 °F 34.0 °F 50% 29.77 in 10.0 mi SSW 5.8 mph - N/A   Clear
8:53 PM 53.1 °F 34.0 °F 48% 29.78 in 10.0 mi SW 4.6 mph - N/A   Clear
9:53 PM 48.9 °F 34.0 °F 56% 29.78 in 10.0 mi Calm Calm - N/A   Clear
10:53 PM 52.0 °F 33.1 °F 49% 29.77 in 10.0 mi SW 8.1 mph - N/A   Clear
11:53 PM 51.1 °F 32.0 °F 48% 29.76 in 10.0 mi SW 8.1 mph - N/A   Clear